Flag for Canada Weather past 2 weeks in Terrebonne, Quebec, Canada

Now
73 °F

Mild.


Feels Like: 76 °F
Forecast: 63 / 76 °F
Wind: 6 mph from Southwest

Location: L'Assomption Airport

Current Time: Jul 23, 2014 at 3:48:54 AM

Latest Report: Jul 23, 2014 at 1:00 AM


Visibility: N/A

Pressure: 29.83 "Hg

Humidity: 68%

Dew point: 62 °F

Location of TerrebonneLocation

Historic Weather in Terrebonne — Graph

°F

Terrebonne temperature yesterday

Maximum temperature yesterday: 83 °F (at 12:00 PM)
Minimum temperature yesterday: 67 °F (at 4:00 AM)
Average temperature yesterday: 73 °F

Past Weeks' High & Low Weather Summary

 TemperatureHumidityPressure
High85 °F (Jul 8, 3:00 PM)100% (Jul 16, 5:00 AM)30.29 "Hg (Jul 16, 5:00 AM)
Low50 °F (Jul 11, 4:00 AM)32% (Jul 11, 3:00 PM)29.40 "Hg (Jul 8, 10:00 PM)
Average69 °F71%29.97 "Hg
* Reported Jul 8 1:00 AM — Jul 23 1:00 AM, Terrebonne, Weather by CustomWeather, © 2014

Note: Actual official high and low records may vary slightly from our data, if they occured in-between our weather recording intervals... More about our weather records

Advertising

Terrebonne weather history for previous 24 hours

 ConditionsComfort  
Time TempWeatherWind HumidityBarometerVisibility
1:00 AM
Jul 23
73 °FMild.6 mph68%29.83 "HgN/A
12:00 AM76 °FMild.9 mph64%29.83 "HgN/A
11:00 PM
Jul 22
75 °FMild.6 mph67%29.84 "HgN/A
10:00 PM78 °FWarm.6 mph66%29.88 "HgN/A
9:00 PM75 °FMild.2 mph71%29.91 "HgN/A
8:00 PM79 °FWarm.5 mph63%29.91 "HgN/A
7:00 PM83 °FWarm.9 mph56%29.93 "HgN/A
12:00 PM83 °FWarm.9 mph54%30.03 "HgN/A
11:00 AM81 °FWarm.8 mph62%30.05 "HgN/A
10:00 AM78 °FWarm.8 mph69%30.06 "HgN/A
9:00 AM75 °FMild.8 mph76%30.09 "HgN/A
8:00 AM72 °FMild.5 mph80%30.10 "HgN/A
7:00 AM70 °FMild.7 mph87%30.07 "HgN/A
6:00 AM67 °FMild.5 mph89%30.07 "HgN/A
5:00 AM67 °FMild.3 mph90%30.07 "HgN/A
4:00 AM67 °FMild.3 mph89%30.07 "HgN/A
3:00 AM67 °FMild.3 mph87%30.07 "HgN/A
Weather by CustomWeather, © 2014

See weather overviewHow to use our weather pages